DLH770 EDDL-EDDM

Flight info

Callsign DLH770
Flight time N/A
Altitude 35000
Route DODEN1T/23L DODEN Y853 BOMBI T104 HAREM/N0395F270 T104 ROKIL ROKIL1A
Aircraft A333/H-SDE3GHIJ2J3J5M1RVWXY/LB2D1

Departure

Time 2026-05-04 16:22
Airport Düsseldorf Airport (EDDL)

Arrival

Time N/A
Airport Munich Airport (EDDM)
Time Latitude Longitude Altitude Speed Heading
2026-05-04 15:57 51.28067 6.76290 129 ft 0 kts 185°
2026-05-04 16:15 51.28104 6.76271 128 ft 2 kts 135°
2026-05-04 16:16 51.28119 6.76229 127 ft 2 kts 98°
2026-05-04 16:16 51.28111 6.76171 125 ft 0 kts 52°
2026-05-04 16:17 51.28109 6.76165 125 ft 0 kts 53°
2026-05-04 16:19 51.28144 6.76241 127 ft 13 kts 54°
2026-05-04 16:20 51.28342 6.76658 131 ft 10 kts 53°
2026-05-04 16:20 51.28475 6.76754 130 ft 21 kts 48°
2026-05-04 16:21 51.28895 6.77606 128 ft 25 kts 32°
2026-05-04 16:22 51.29016 6.77420 128 ft 28 kts 241°
2026-05-04 16:22 51.27441 6.74091 826 ft 190 kts 232°
2026-05-04 16:23 51.25016 6.68908 3030 ft 219 kts 233°
2026-05-04 16:24 51.19864 6.62874 4944 ft 264 kts 174°
2026-05-04 16:25 51.16316 6.64201 4968 ft 260 kts 172°
2026-05-04 16:26 51.13195 6.73370 4981 ft 273 kts 89°
2026-05-04 16:26 51.13539 6.82414 4961 ft 273 kts 89°
2026-05-04 16:27 51.13770 6.88561 6574 ft 280 kts 90°
2026-05-04 16:28 51.14111 6.97952 9320 ft 292 kts 89°
2026-05-04 16:28 51.14469 7.08005 11216 ft 331 kts 89°
2026-05-04 16:29 51.15025 7.24031 13486 ft 382 kts 88°
2026-05-04 16:30 51.15456 7.36902 15578 ft 397 kts 89°
2026-05-04 16:31 51.14599 7.45400 16957 ft 396 kts 117°
2026-05-04 16:31 51.08999 7.54924 18876 ft 401 kts 138°
2026-05-04 16:32 51.02880 7.64204 20693 ft 413 kts 138°
2026-05-04 16:33 50.98700 7.70550 21799 ft 420 kts 140°
2026-05-04 16:33 50.94107 7.76171 22764 ft 422 kts 152°
2026-05-04 16:34 50.89123 7.81077 23795 ft 428 kts 152°
2026-05-04 16:34 50.86588 7.83570 24313 ft 431 kts 152°
2026-05-04 16:35 50.78879 7.91136 25839 ft 440 kts 152°
2026-05-04 16:35 50.71007 7.98831 27278 ft 449 kts 152°
2026-05-04 16:36 50.68384 8.01387 27752 ft 449 kts 152°
2026-05-04 16:36 50.63015 8.06610 28389 ft 458 kts 152°
2026-05-04 16:37 50.57802 8.12486 29113 ft 468 kts 144°
2026-05-04 16:37 50.55345 8.15725 29617 ft 466 kts 144°
2026-05-04 16:37 50.50379 8.22240 30607 ft 466 kts 144°
2026-05-04 16:38 50.45437 8.28698 31520 ft 465 kts 145°
2026-05-04 16:39 50.38005 8.38378 32938 ft 462 kts 145°
2026-05-04 16:39 50.33107 8.44731 33836 ft 459 kts 145°
2026-05-04 16:40 50.28231 8.51043 34647 ft 451 kts 145°
2026-05-04 16:40 50.23553 8.57082 36087 ft 429 kts 145°
2026-05-04 16:41 50.19054 8.62875 37620 ft 411 kts 145°
2026-05-04 16:41 50.12643 8.71098 38893 ft 406 kts 146°
2026-05-04 16:42 50.05934 8.79676 39466 ft 424 kts 146°
2026-05-04 16:43 50.01550 8.85839 39991 ft 435 kts 142°
2026-05-04 16:43 49.96984 8.92309 39052 ft 445 kts 142°
2026-05-04 16:43 49.94707 8.95523 38878 ft 438 kts 142°